[[{"header":{"parameterUnit":"m.s-1","parameterCategory":1,"la1":30.2991,"la2":30.254,"lo1":-89.0895,"lo2":-89.0444,"dy":0.0017,"dx":0.0017,"nx":28,"ny":28,"refTime":"2025-05-23T21:00:00:Z","depth":0,"parameterNumber":2,"parameterNumberName":"U-component_of_WINDS"},"data":[0,0,0,0,0,0,0,0,0,0,0,0,0,0,0,0,0,0,0,0,0,0,0,0,0,0,0,0,0,0,0,0,0,0,0,0,0,0,0,0,0,0,0,0,0,0,0,0,0,0,0,0,0,0,0,0,0,0,-0.6174,-0.6174,0,-0.6175,-0.6175,-0.6175,-0.6193,-0.6193,-0.6194,-0.6194,-0.6194,-0.6193,-0.6193,0,0,0,0,0,0,0,0,0,0,0,0,0,-0.6188,-0.6188,-0.6174,-0.6174,-0.6174,-0.6175,-0.6175,-0.6175,-0.6193,-0.6193,-0.6194,-0.6194,-0.6194,-0.6193,-0.6193,0,0,0,0,0,0,0,0,0,0,0,0,0,-0.6185,-0.6188,-0.6174,-0.6183,-0.6184,-0.6175,-0.6175,-0.6175,-0.6192,-0.6193,-0.6194,-0.6195,-0.6194,-0.6193,-0.6193,-0.6175,0,0,-0.6191,-0.619,0,0,0,0,0,0,0,0,-0.6185,-0.6184,-0.6182,-0.6182,-0.6183,-0.6184,-0.618,-0.6175,-0.6192,-0.6189,-0.6194,-0.6195,-0.619,-0.619,-0.6188,-0.6175,-0.6175,-0.619,-0.619,-0.619,-0.619,0,0,0,0,0,0,0,-0.6185,-0.6184,-0.6174,-0.6182,-0.6183,-0.6187,-0.6187,-0.6179,-0.6186,-0.619,-0.6191,-0.6191,-0.619,-0.6189,-0.6188,-0.6175,-0.619,-0.619,-0.6189,-0.6189,-0.6148,-0.6147,0,0,0,0,0,0,-0.6184,-0.6184,-0.6174,-0.6174,-0.6186,-0.6186,-0.6187,-0.6183,-0.6186,-0.6187,-0.619,-0.6192,-0.619,-0.6189,-0.6188,-0.6168,-0.619,-0.6189,-0.6189,-0.6148,-0.6148,-0.6147,0,0,0,0,0,0,-0.6184,-0.6183,-0.6174,-0.618,-0.6179,-0.6185,-0.6182,-0.6183,-0.6181,-0.6186,-0.6187,-0.6187,-0.619,-0.6189,-0.6178,-0.6168,-0.6189,-0.6188,-0.6149,-0.6148,-0.6147,-0.6127,0,0,0,0,0,0,-0.6185,-0.6183,-0.6176,-0.6179,-0.6179,-0.6164,-0.6181,-0.6183,-0.618,-0.6182,-0.6184,-0.6185,-0.6191,-0.6179,-0.6178,-0.6168,-0.6188,-0.615,-0.6149,-0.6148,-0.6128,-0.6125,-0.6122,0,0,0,0,0,-0.6185,-0.617,-0.6176,-0.6174,-0.617,-0.6163,-0.6163,-0.617,-0.6179,-0.6173,-0.6176,-0.6185,-0.617,-0.6178,-0.6176,-0.6166,-0.6151,-0.6149,-0.6148,-0.613,-0.6126,-0.6122,0,0,0,0,0,0,-0.6164,-0.617,-0.6177,-0.6162,-0.6162,-0.6166,-0.6158,-0.6166,-0.6163,-0.6165,-0.6174,-0.6174,-0.6162,-0.6163,-0.6172,-0.6149,-0.6162,-0.616,-0.6149,-0.6145,-0.6142,-0.6142,-0.6187,0,0,0,0,0,-0.6158,-0.6152,-0.6158,-0.6144,-0.6144,-0.6151,-0.6148,-0.6154,-0.6155,-0.6155,-0.6157,-0.6157,-0.6152,-0.6149,-0.6145,-0.6129,-0.613,-0.6121,-0.6118,-0.6116,-0.6114,-0.6106,-0.6103,-0.6142,-0.6142,-0.6142,0,0,-0.6144,-0.6147,-0.6143,-0.614,-0.6141,-0.6135,-0.6151,-0.6143,-0.6139,-0.6153,-0.6143,-0.6145,-0.6146,-0.6132,-0.6127,-0.6133,-0.6104,-0.6114,-0.6112,-0.6111,-0.6104,-0.6101,-0.6097,-0.6141,-0.6141,-0.6141,0,0,-0.6117,-0.6119,-0.6108,-0.6109,-0.611,-0.6115,-0.6113,-0.6116,-0.6118,-0.6109,-0.612,-0.6115,-0.6107,-0.6107,-0.6106,-0.6081,-0.6089,-0.6079,-0.6063,-0.6056,-0.6053,-0.605,-0.6041,-0.6038,-0.6077,-0.6077,-0.6077,0,-0.61,-0.6091,-0.6101,-0.6093,-0.6092,-0.6106,-0.6096,-0.6096,-0.6096,-0.6095,-0.6102,-0.6093,-0.6094,-0.6082,-0.6076,-0.6074,-0.6072,-0.6078,-0.6053,-0.605,-0.6048,-0.6039,-0.6036,-0.6076,-0.6076,-0.6076,-0.6077,0,-0.6071,-0.6065,-0.6056,-0.6056,-0.6054,-0.6045,-0.6054,-0.605,-0.6057,-0.6062,-0.6052,-0.6055,-0.6052,-0.605,-0.6056,-0.6038,-0.6042,-0.6051,-0.6063,-0.6043,-0.6035,-0.6032,-0.6075,-0.6075,-0.6075,-0.6076,0,0,-0.6028,-0.6035,-0.6032,-0.6033,-0.6036,-0.6032,-0.6024,-0.6022,-0.6019,-0.6019,-0.6013,-0.6007,-0.6015,-0.6014,-0.6021,-0.6015,-0.5995,-0.6024,-0.6025,-0.6019,-0.5976,-0.5969,-0.5965,-0.6001,-0.6001,-0.6,-0.5976,0,-0.6001,-0.5988,-0.5997,-0.5982,-0.5977,-0.5992,-0.5985,-0.5987,-0.5991,-0.5988,-0.5993,-0.5988,-0.6,-0.6,-0.5994,-0.5999,-0.5987,-0.6001,-0.5995,-0.5995,-0.5993,-0.5961,-0.5953,-0.593,-0.5973,-0.5973,-0.5973,0,-0.5968,-0.5967,-0.5952,-0.5958,-0.5956,-0.595,-0.595,-0.5946,-0.5949,-0.5953,-0.5953,-0.5961,-0.5954,-0.5968,-0.5959,-0.5968,-0.5967,-0.5969,-0.5968,-0.5967,-0.5981,-0.5959,-0.5923,-0.592,-0.5968,-0.5968,-0.5969,0,-0.5938,-0.5934,-0.5924,-0.5925,-0.5931,-0.5927,-0.5929,-0.5933,-0.5931,-0.5931,-0.5931,-0.593,-0.5929,-0.5928,-0.5937,-0.5946,-0.5926,-0.594,-0.5929,-0.5929,-0.5923,-0.5923,-0.5886,-0.5924,-0.5924,-0.5924,-0.5924,0,-0.5907,-0.5897,-0.5911,-0.5905,-0.5895,-0.5906,-0.5896,-0.59,-0.5903,-0.5899,-0.5911,-0.5907,-0.5919,-0.5916,-0.5923,-0.5914,-0.5914,-0.5917,-0.5918,-0.5915,-0.5914,-0.5913,-0.5915,-0.5923,-0.5923,-0.5923,-0.5923,0,-0.5871,-0.588,-0.5871,-0.5879,-0.588,-0.5872,-0.5879,-0.5874,-0.5881,-0.5875,-0.5874,-0.5883,-0.5881,-0.589,-0.5888,-0.5893,-0.588,-0.5885,-0.5879,-0.588,-0.5869,-0.5869,-0.5829,-0.5824,-0.5865,-0.5865,-0.5864,0,-0.585,-0.5843,-0.585,-0.5848,-0.585,-0.5847,-0.5846,-0.5858,-0.5857,-0.586,-0.5855,-0.5853,-0.5852,-0.5847,-0.5854,-0.5853,-0.5858,-0.5844,-0.5857,-0.5855,-0.5857,-0.5857,-0.5857,-0.584,-0.584,-0.5839,-0.5839,0,-0.5811,-0.5817,-0.5815,-0.5816,-0.5814,-0.5815,-0.5817,-0.5815,-0.5827,-0.5825,-0.5823,-0.5822,-0.5822,-0.582,-0.5821,-0.5824,-0.5833,-0.5835,-0.5832,-0.5828,-0.5825,-0.5827,-0.5871,-0.5836,-0.5836,-0.5836,-0.5836,-0.5836,-0.5782,-0.5777,-0.5782,-0.578,-0.5783,-0.5784,-0.578,-0.5787,-0.5785,-0.5785,-0.5793,-0.5789,-0.5793,-0.5796,-0.5798,-0.5796,-0.5802,-0.5798,-0.5797,-0.5796,-0.5794,-0.5827,-0.5796,-0.5796,-0.5796,-0.5796,-0.5796,0,-0.5744,-0.5748,-0.5747,-0.5749,-0.5748,-0.5759,-0.5761,-0.576,-0.5756,-0.576,-0.5759,-0.5757,-0.5756,-0.5764,-0.5764,-0.576,-0.5765,-0.576,-0.576,-0.576,-0.5788,-0.579,-0.5756,-0.5756,-0.5756,-0.5756,-0.5756,-0.5756,-0.5724,-0.5716,-0.5722,-0.5716,-0.572,-0.5717,-0.5718,-0.572,-0.5723,-0.572,-0.5719,-0.5725,-0.573,-0.5731,-0.5731,-0.5733,-0.5732,-0.5726,-0.5729,-0.5754,-0.5758,-0.5762,-0.5764,-0.5725,-0.5725,-0.5702,-0.5702,-0.5702]},{"header":{"parameterUnit":"m.s-1","parameterCategory":1,"la1":30.2991,"la2":30.254,"lo1":-89.0895,"lo2":-89.0444,"dy":0.0017,"dx":0.0017,"nx":28,"ny":28,"refTime":"2025-05-23T21:00:00:Z","depth":0,"parameterNumber":3,"parameterNumberName":"V-component_of_WINDS"},"data":[0,0,0,0,0,0,0,0,0,0,0,0,0,0,0,0,0,0,0,0,0,0,0,0,0,0,0,0,0,0,0,0,0,0,0,0,0,0,0,0,0,0,0,0,0,0,0,0,0,0,0,0,0,0,0,0,0,0,4.879,4.8789,0,4.8688,4.8686,4.8685,4.866,4.8661,4.8661,4.8662,4.8551,4.8548,4.8544,0,0,0,0,0,0,0,0,0,0,0,0,0,4.8959,4.8956,4.879,4.8789,4.8787,4.8688,4.8686,4.8685,4.866,4.8661,4.8662,4.8662,4.8552,4.8548,4.8544,0,0,0,0,0,0,0,0,0,0,0,0,0,4.8874,4.8955,4.879,4.8763,4.876,4.8688,4.8686,4.8685,4.866,4.8661,4.8662,4.8663,4.8554,4.8549,4.8543,4.849,0,0,4.8527,4.8525,0,0,0,0,0,0,0,0,4.8878,4.8867,4.8768,4.8765,4.8761,4.8688,4.8705,4.8619,4.866,4.8697,4.8662,4.8663,4.8595,4.8587,4.8565,4.8485,4.848,4.8526,4.8523,4.8521,4.8519,0,0,0,0,0,0,0,4.8884,4.8872,4.8749,4.8767,4.8762,4.8754,4.8743,4.8689,4.8642,4.8694,4.8692,4.8681,4.8594,4.857,4.8562,4.8478,4.8527,4.8522,4.8519,4.8516,4.8349,4.8348,0,0,0,0,0,0,4.8896,4.8877,4.8752,4.8746,4.8824,4.8751,4.8738,4.871,4.8642,4.8633,4.868,4.868,4.8579,4.8569,4.8558,4.8491,4.8521,4.8516,4.8513,4.835,4.8349,4.8348,0,0,0,0,0,0,4.8899,4.8885,4.8757,4.8811,4.8794,4.8747,4.8715,4.8707,4.8684,4.8632,4.8623,4.8665,4.8579,4.8566,4.8508,4.8487,4.8513,4.8509,4.8352,4.835,4.8348,4.8357,0,0,0,0,0,0,4.8904,4.8886,4.8866,4.8811,4.8791,4.8709,4.8714,4.8705,4.8676,4.8675,4.8615,4.8606,4.8579,4.8516,4.8502,4.848,4.8504,4.8353,4.8351,4.8349,4.8358,4.8356,4.8354,0,0,0,0,0,4.891,4.8871,4.8866,4.8851,4.8766,4.8708,4.8696,4.8668,4.8674,4.8653,4.862,4.8608,4.8492,4.851,4.8495,4.8471,4.8354,4.8352,4.8349,4.8359,4.8356,4.8354,0,0,0,0,0,0,4.8923,4.8863,4.8856,4.8798,4.8759,4.8704,4.8676,4.8665,4.8621,4.8621,4.8586,4.8573,4.8517,4.8488,4.8509,4.8416,4.8423,4.8417,4.8436,4.8433,4.8431,4.8438,4.85,0,0,0,0,0,4.892,4.888,4.8829,4.8783,4.8763,4.8724,4.8697,4.8679,4.8635,4.8618,4.858,4.8536,4.849,4.846,4.8414,4.8355,4.8341,4.8331,4.8328,4.8327,4.8322,4.8288,4.8283,4.8339,4.8339,4.8339,0,0,4.8911,4.8874,4.885,4.8784,4.8751,4.8709,4.8709,4.8664,4.8632,4.861,4.8553,4.8524,4.8473,4.8415,4.8386,4.8389,4.8304,4.8323,4.8322,4.8318,4.8285,4.828,4.8275,4.8337,4.8337,4.8337,0,0,4.8874,4.8842,4.88,4.8768,4.8719,4.8694,4.8684,4.8631,4.8611,4.8555,4.8537,4.8498,4.8419,4.8384,4.8356,4.8308,4.8296,4.8294,4.8281,4.8249,4.8245,4.8241,4.8223,4.8218,4.8289,4.8289,4.8289,0,4.8869,4.8806,4.878,4.8736,4.8708,4.8689,4.8646,4.8615,4.8553,4.8533,4.8537,4.8439,4.8403,4.8336,4.8325,4.8303,4.829,4.83,4.8248,4.8244,4.8239,4.8222,4.8216,4.829,4.829,4.829,4.8289,0,4.8803,4.876,4.8732,4.8675,4.8643,4.86,4.8566,4.8537,4.8522,4.8495,4.8438,4.8395,4.8341,4.8324,4.8307,4.8255,4.8258,4.8255,4.8262,4.8235,4.8218,4.8212,4.829,4.829,4.829,4.829,0,0,4.8768,4.87,4.869,4.8665,4.8611,4.8576,4.8532,4.8482,4.8457,4.8416,4.8377,4.8312,4.831,4.8278,4.8258,4.823,4.8196,4.8231,4.823,4.8226,4.8135,4.8137,4.813,4.8188,4.8187,4.8186,4.8139,0,4.8724,4.8648,4.8623,4.8558,4.8518,4.85,4.8462,4.8424,4.8399,4.836,4.833,4.8285,4.8286,4.8267,4.8239,4.8206,4.8177,4.8209,4.8151,4.8149,4.8163,4.8121,4.8122,4.808,4.8132,4.8131,4.813,0,4.8662,4.8623,4.8554,4.8507,4.8489,4.8455,4.8408,4.8371,4.8328,4.8311,4.8277,4.826,4.8212,4.8223,4.8157,4.8179,4.8154,4.8135,4.8132,4.8125,4.8137,4.8112,4.8066,4.8059,4.812,4.8121,4.8122,0,4.8644,4.8573,4.8524,4.8503,4.8446,4.8423,4.8397,4.8355,4.8327,4.8285,4.8266,4.8219,4.8192,4.8155,4.8125,4.8136,4.8061,4.807,4.8045,4.8046,4.8029,4.803,4.7978,4.8014,4.8014,4.8015,4.8015,0,4.8597,4.8556,4.8515,4.8484,4.8438,4.841,4.8364,4.8338,4.8301,4.8264,4.8245,4.8211,4.8174,4.8134,4.811,4.8059,4.8047,4.8031,4.8025,4.8033,4.8035,4.8015,4.8017,4.8013,4.8013,4.8014,4.8014,0,4.8568,4.854,4.8484,4.8436,4.8423,4.8391,4.8349,4.8318,4.8293,4.8246,4.8234,4.8193,4.8146,4.8113,4.8051,4.8035,4.798,4.7974,4.7995,4.7992,4.7969,4.7972,4.7902,4.7891,4.7935,4.7935,4.7935,0,4.854,4.8508,4.8458,4.8433,4.8409,4.8368,4.834,4.8312,4.8283,4.8232,4.8207,4.8159,4.8119,4.8044,4.8008,4.7961,4.7954,4.7933,4.7946,4.7955,4.7953,4.7955,4.7952,4.793,4.793,4.7929,4.7929,0,4.8492,4.848,4.8442,4.8398,4.8366,4.833,4.8293,4.8274,4.8239,4.8207,4.816,4.8129,4.8068,4.802,4.797,4.7942,4.7929,4.7926,4.7917,4.7924,4.7937,4.793,4.7989,4.7927,4.7927,4.7927,4.7927,4.7927,4.8462,4.8434,4.8395,4.8352,4.8323,4.829,4.8259,4.8231,4.8192,4.8141,4.8126,4.8077,4.8035,4.7967,4.7939,4.7899,4.79,4.7888,4.7885,4.7883,4.7883,4.7945,4.789,4.789,4.789,4.789,4.789,0,4.8414,4.8388,4.835,4.8301,4.8268,4.8262,4.8222,4.8194,4.8151,4.8114,4.8076,4.8022,4.7976,4.7938,4.789,4.7866,4.7859,4.7854,4.7855,4.7849,4.7884,4.7896,4.786,4.786,4.786,4.7861,4.7861,4.7861,4.8384,4.8336,4.832,4.8257,4.8231,4.8184,4.8162,4.8131,4.8102,4.8043,4.8006,4.7982,4.7944,4.7894,4.7852,4.7841,4.7824,4.7821,4.7809,4.7843,4.7846,4.7849,4.786,4.7818,4.7818,4.7777,4.7777,4.7776]}]]